Regional Weather Roundup
Issued by NWS Boston, MA

Current Version | Previous Version | Text Only | Print | Product List | Glossary Off
Versions: 1 2 3 4 5 6 7 8 9 10 11 12 13 14 15 16 17 18 19 20 21 22 23 24 25 26 27
000 ASUS41 KBOX 110510 RWRBOX REGIONAL WEATHER ROUNDUP NATIONAL WEATHER SERVICE TAUNTON MA 1200 AM EST SUN DEC 11 2016 NOTE: "FAIR" INDICATES FEW OR NO CLOUDS BELOW 12,000 FEET WITH NO SIGNIFICANT WEATHER AND/OR OBSTRUCTIONS TO VISIBILITY. MAZALL-110600- EASTERN MASSACHUSETTS CITY SKY/WX TMP DP RH WIND PRES REMARKS BOSTON CLEAR 22 7 52 NW5 30.44S WCI 16 BEVERLY CLEAR 15 7 70 CALM 30.42F LAWRENCE CLEAR 17 8 67 CALM 30.44S BEDFORD CLEAR 12 6 77 CALM 30.42S BLUE HILL N/A 17 10 74 NW5 30.38S WCI 10 NORWOOD CLEAR 12 6 77 CALM 30.43S MARSHFIELD CLEAR 18 10 73 W5 30.43S WCI 11 PLYMOUTH CLEAR 13 7 77 CALM 30.43S TAUNTON CLEAR 9 6 88 CALM 30.43S NEW BEDFORD CLEAR 14 10 84 CALM 30.43S $$ MAZALL-110600- CAPE COD AND THE ISLANDS CITY SKY/WX TMP DP RH WIND PRES REMARKS FALMOUTH CLEAR 12 7 79 MISG 30.43S HYANNIS CLEAR 22 9 57 W5 30.41S WCI 16 CHATHAM CLOUDY 28 12 51 VRB6 30.42S WCI 22 PROVINCETOWN MOCLDY 27 14 58 NW13G21 30.42F WCI 16 NANTUCKET CLEAR 27 10 49 NW13 30.42S WCI 16 MARTHAS VNYRD CLEAR 22 9 57 N5 30.43S WCI 16 $$ MAZALL-110600- CENTRAL AND WESTERN MASSACHUSETTS CITY SKY/WX TMP DP RH WIND PRES REMARKS WORCESTER CLEAR 16 7 67 W5 30.36R WCI 9 FITCHBURG CLEAR 12 7 80 CALM 30.42S ORANGE CLEAR 9 6 88 CALM 30.40S SPRINGFIELD CLEAR 11 8 85 CALM 30.41S WESTFIELD CLEAR 12 10 92 CALM 30.42S NORTH ADAMS CLOUDY 16 11 80 CALM 30.39R PITTSFIELD CLOUDY 14 10 84 SW5 30.34R WCI 6 $$ RIZALL-110600- RHODE ISLAND CITY SKY/WX TMP DP RH WIND PRES REMARKS PROVIDENCE PTCLDY 20 9 62 CALM 30.44S NEWPORT CLEAR 24 12 60 NW5 30.42S WCI 18 BLOCK ISLAND CLEAR 30 14 51 NW8 30.44S WCI 22 SMITHFIELD CLEAR 14 7 73 CALM 30.41S WESTERLY CLEAR 19 10 68 CALM 30.45S $$ CTZALL-110600- CONNECTICUT CITY SKY/WX TMP DP RH WIND PRES REMARKS BRADLEY INTL CLEAR 15 9 76 CALM 30.43S HARTFORD CLEAR 18 15 88 CALM 30.45R BRIDGEPORT CLEAR 25 18 74 NW5 30.46R WCI 19 DANBURY CLEAR 16 13 88 CALM 30.44R GROTON CLEAR 22 16 78 NE3 30.44S NEW HAVEN CLEAR 19 14 81 CALM 30.45R CHESTER FAIR 21 10 63 CALM 30.42R MERIDEN CLEAR 18 12 77 CALM 30.45R WILLIMANTIC CLEAR 16 11 80 CALM 30.44S OXFORD CLEAR 18 10 73 W3 30.41S $$ MEZ002-015-021-024-NHZ003-005-008-011-012-014-VTZ005-008-110600- NORTHERN NEW ENGLAND CITY SKY/WX TMP DP RH WIND PRES REMARKS PORTLAND ME CLEAR 13 5 70 CALM 30.42R BANGOR ME PTCLDY 12 3 67 NW3 30.34S CONCORD NH CLEAR 8 2 76 CALM 30.41R MANCHESTER NH CLEAR 14 6 70 CALM 30.41S NASHUA NH CLEAR 11 7 84 CALM N/A PORTSMOUTH NH CLEAR 17 7 65 W6 30.41S WCI 9 JAFFREY NH CLEAR 6 1 80 CALM 30.35S KEENE NH CLEAR 6 4 91 CALM 30.41S BURLINGTON VT CLOUDY 20 12 71 S6 30.38S WCI 12 MT. WASHINGTON FOG -9 -9 100 NW41 N/A VSB 1/8 WCI -42 $$ NYZ052-076-110600- EASTERN NEW YORK CITY SKY/WX TMP DP RH WIND PRES REMARKS ALBANY MOCLDY 18 13 80 S3 30.42S NEW YORK CITY CLEAR 32 17 54 NW12 30.46F WCI 23 $$ ANZALL-110600- MARINE OBSERVATIONS STATION/POSITION TIME TEMP WIND PRES VSBY WAVE AIR SEA DIR/SP/G HT/PER (UTC) (F) (DEG/KT/KT) (MB) (MI) (FT/S) BOSTON BUOY 0350 27 49 330/ 14/ 17 1029.8 2/ 3 BUZZARDS BAY 0400 29 320/ 14/ 17 1031.0R NANTUCKET SOUND NOT AVBL MASS BAY-STELLWA 0404 26 47 320/ 12/ 16 1029.9R 1 7/8 ISLE OF SHOALS 0400 23 300/ 11/ 15 1029.9R S OF BLOCK IS 0455 54 N/A 4/ 5 $$ ......................KEY......................... SKY/WX - SKY CONDITION/PRESENT WEATHER TMP - TEMPERATURE IN FAHRENHEIT DWPT - DEWPOINT IN FAHRENHEIT RH - RELATIVE HUMIDITY IN PERCENT WIND - DIRECTION AND SPEED IN MPH PRES - MEAN SEA LEVEL PRESSURE IN INCHES OF HG WCI - WIND CHILL INDEX VSB - VISIBILITY IN MILES HX - HEAT INDEX TC - TEMPERATURE IN CELSIUS VRB - VARIABLE WIND DIRECTION N/A - NOT AVAILABLE

USA.gov is the U.S. government's official web portal to all federal, state and local government web resources and services.